Location: Devargunta
(16.7631°N, 80.9077°E)
Time: 09:55:54
(UTC+00:00)

Cosmos 1953 - Pass Details

Date: 19 January 2021
Orbit: 539 x 556 km, 82.5° (Epoch: 28 February)

Event Time Altitude Azimuth Distance (km) Brightness Sun altitude
Rises 23:27:18 0° 163° (SSE) 2,709 6.3 -24.0°
Reaches altitude 10° 23:29:41 10° 151° (SSE) 1,814 5.5 -23.5°
Maximum altitude 23:33:07 28° 92° (E) 1,051 4.4 -22.7°
Drops below altitude 10° 23:36:31 10° 33° (NNE) 1,808 5.1 -21.9°
Sets 23:38:53 0° 21° (NNE) 2,699 5.9 -21.3°
